THORAD AGENA D DEB, 4173

Orbit data source: Space-Track

THORAD AGENA D DEB, 4173 is space debris in LEO originally from a launch on Tue, 30 Sep 1969 UTC launched from the Air Force Western Test Range (AFWTR). Debris objects in space refer to the collection of defunct objects orbiting the Earth. Examples of debris include non-operational satellites, rocket bodies, and fragments generated from explosions, collisions, or faulty payload assembly.

Loading next visibility...
Identifier
4173, 1969-082AR
Orbit
LEO
Country
Flag of USUS
Related business
Manufacturer
Unknown
Mission
Spacecraft
Bus & Motor
Unknown
Mass
Unknown
Launch date (UTC)
1969-09-30 (57 years ago)
Launch vehicle
Unknown
Launch site
Air Force Western Test Range (AFWTR)
Object type
Payload
Rocket body
Debris
Shape & HBR
Unknown shape, 0.1 m
Radar Cross Section
Medium (>0.1 m² and <1 m²)

Expand to show TLE details & history
Last TLE update: 3 days ago

TLE from 3 days ago
0 THORAD AGENA D DEB
1 04173U 69082AR  26170.94723370  .00005409  00000-0  64978-3 0  9996
2 04173  70.0671 354.1478 0019934  17.7076 342.4767 14.84378983973898
Epoch: 2026-06-19T22:44Z
TLE epoch observation values (Epoch: 2026-06-19T22:44:00.991Z)
Latitude
Longitude
104.97477°
Altitude
604.656 km
Speed
7.565 km/s
True Right ascension
23h 36m 35s
True Declination
0° 00' 00"
Sunlit
Object was in daylight at epoch
Visualization orbit readout
Latitude
Unknown
Longitude
Unknown
Altitude
Unknown
Speed
Unknown
Apparent Right ascension
Unknown
Apparent Declination
Unknown
Sunlit
N/A
Visualization observer readout
Local Sidereal Time
05:22:44
Azimuth
Unknown
Elevation
Unknown
Doppler factor
Unknown
Orbital elements
Apogee altitude
627.427 km
Perigee altitude
599.553 km
Semi-major axis
6,991.627 km
Eccentricity
0.00199
Inclination
70.0671°
RAAN
354.1478°
Arg. of periapsis
17.7076°
True anomaly
342.40776°
Mean anomaly
342.4767°
Eccentric anomaly
342.44225°
Mean motion
3.71258 °/min
Orbital period
96.97 mins
BSTAR
0.00064978

Documentation

Showing up to 5 results
|